FW4800 Weather Reports


Display with metric or nautical units.
time (UTC)temp
F
wind
direction
speed
MPH
gust
MPH
rain 1hr
in
rain 24hr
in
rain mn
in
humidity
%
barometer
mb
20260504202008 63 355 4.0 11.0 0.00 0.01 0.01 44 1003.6
20260504201507 63 59 3.0 14.0 0.00 0.01 0.01 45 1003.5
20260504201007 63 74 7.0 14.0 0.00 0.01 0.01 45 1003.5
20260504200506 63 40 3.0 10.0 0.01 0.01 0.01 45 1003.6
20260504200006 63 38 3.0 18.0 0.01 0.01 0.01 43 1003.7
20260504195504 63 26 8.0 19.0 0.01 0.01 0.01 41 1003.7
20260504195003 63 78 10.0 19.0 0.01 0.01 0.01 41 1003.5
20260504194502 64 30 6.0 14.0 0.01 0.01 0.01 43 1003.3
20260504194001 64 360 9.0 24.0 0.01 0.01 0.01 41 1003.3
20260504193600 64 71 3.0 9.0 0.01 0.01 0.01 43 1002.9
20260504192559 65 19 3.0 11.0 0.01 0.01 0.01 42 1002.7
20260504192104 65 33 1.0 11.0 0.01 0.01 0.01 43 1002.3
20260504191604 65 24 3.0 9.0 0.01 0.01 0.01 45 1002.3
20260504191057 65 89 3.0 10.0 0.01 0.01 0.01 41 1002.1
20260504190556 65 13 4.0 21.0 0.00 0.00 0.00 38 1002.1
20260504190114 67 355 10.0 21.0 0.00 0.00 0.00 34 1001.9
20260504185558 67 43 4.0 16.0 0.00 0.00 0.00 29 1001.8
20260504185053 68 27 6.0 23.0 0.00 0.00 0.00 30 1001.6
20260504184611 69 36 11.0 23.0 0.00 0.00 0.00 28 1001.7
20260504184050 71 39 7.0 16.0 0.00 0.00 0.00 26 1001.7
20260504183550 72 347 3.0 9.0 0.00 0.00 0.00 24 1001.7
20260504182548 72 338 3.0 6.0 0.00 0.00 0.00 23 1001.5
20260504182050 72 309 3.0 10.0 0.00 0.00 0.00 23 1001.5
20260504181549 72 35 4.0 13.0 0.00 0.00 0.00 23 1001.6
20260504181048 73 5 6.0 13.0 0.00 0.00 0.00 23 1001.5
20260504180547 73 51 5.0 13.0 0.00 0.00 0.00 24 1001.6
20260504180052 73 5 6.0 15.0 0.00 0.00 0.00 24 1001.7
20260504175546 73 25 10.0 18.0 0.00 0.00 0.00 24 1001.7
20260504175047 74 5 9.0 18.0 0.00 0.00 0.00 23 1001.7
20260504174546 75 243 5.0 11.0 0.00 0.00 0.00 24 1001.7
20260504174046 75 227 3.0 11.0 0.00 0.00 0.00 22 1001.8
20260504173545 75 9 3.0 9.0 0.00 0.00 0.00 23 1001.9
20260504172545 74 30 4.0 16.0 0.00 0.00 0.00 23 1001.9
20260504172044 74 28 6.0 16.0 0.00 0.00 0.00 22 1002.1
20260504171544 74 325 10.0 16.0 0.00 0.00 0.00 22 1002.0
20260504171042 74 273 6.0 14.0 0.00 0.00 0.00 23 1001.9
20260504170544 73 288 4.0 14.0 0.00 0.00 0.00 24 1001.9
20260504151028 58 286 0.0 2.0 0.00 0.00 0.00 46 1002.8
20260504150529 57 286 0.0 2.0 0.00 0.00 0.00 46 1003.0
20260504141026 50 337 0.0 5.0 0.00 0.00 0.00 55 1003.4
20260504140526 49 335 2.0 5.0 0.00 0.00 0.00 56 1003.5
20260504130526 43 161 0.0 2.0 0.00 0.00 0.00 63 1003.6
20260504110516 41 326 0.0 1.0 0.00 0.00 0.00 64 1003.7
20260504100508 43 328 1.0 4.0 0.00 0.00 0.00 60 1004.1
20260504081557 45 334 0.0 2.0 0.00 0.00 0.00 57 1004.7
20260504081058 45 334 0.0 2.0 0.00 0.00 0.00 57 1004.8
20260504080559 45 360 1.0 2.0 0.00 0.00 0.00 56 1004.9
20260504050532 56 281 2.0 5.0 0.00 0.00 0.00 41 1005.9
20260504045525 57 300 2.0 5.0 0.00 0.00 0.00 39 1005.8
20260504045025 58 302 3.0 6.0 0.00 0.00 0.00 39 1005.8
20260504044526 58 315 4.0 8.0 0.00 0.00 0.00 39 1005.9
20260504044023 58 290 3.0 8.0 0.00 0.00 0.00 39 1006.0
20260504043522 59 282 2.0 5.0 0.00 0.00 0.00 39 1006.1
20260504042521 60 275 3.0 7.0 0.00 0.00 0.00 37 1006.0
20260504042019 60 273 3.0 14.0 0.00 0.00 0.00 36 1005.9
20260504041519 61 259 7.0 14.0 0.00 0.00 0.00 35 1005.8
20260504041017 62 360 4.0 11.0 0.00 0.00 0.00 35 1005.8
20260504040516 62 308 5.0 17.0 0.00 0.00 0.00 34 1005.7
20260504040015 63 65 13.0 17.0 0.00 0.00 0.00 33 1005.5
20260504035515 63 44 4.0 19.0 0.00 0.00 0.00 32 1005.6
20260504035013 64 71 12.0 19.0 0.00 0.00 0.00 31 1005.4
20260504034520 64 360 5.0 17.0 0.00 0.00 0.00 30 1005.8
20260504034011 64 33 8.0 14.0 0.00 0.00 0.00 28 1005.5
20260504033511 65 55 3.0 11.0 0.00 0.00 0.00 27 1005.6
20260504032511 66 61 5.0 14.0 0.00 0.00 0.00 26 1005.5
20260504032011 66 74 7.0 14.0 0.00 0.00 0.00 25 1005.4
20260504031512 65 65 8.0 14.0 0.00 0.00 0.00 26 1005.3
20260504031010 64 15 5.0 11.0 0.00 0.00 0.00 27 1005.2
20260504030512 64 62 1.0 4.0 0.00 0.00 0.00 29 1005.2
20260504030010 63 65 1.0 6.0 0.00 0.00 0.00 30 1005.1
20260504025512 63 30 2.0 6.0 0.00 0.00 0.00 31 1005.1
20260504025010 63 360 1.0 4.0 0.00 0.00 0.00 32 1005.0
20260504024530 63 26 0.0 2.0 0.00 0.00 0.00 31 1004.9
20260504024009 63 26 0.0 8.0 0.00 0.00 0.00 31 1004.8
20260504023509 63 40 1.0 3.0 0.00 0.00 0.00 34 1004.9
20260504022509 63 181 1.0 3.0 0.00 0.00 0.00 35 1004.6
20260504022014 63 180 0.0 2.0 0.00 0.00 0.00 34 1004.6
20260504021506 64 180 1.0 2.0 0.00 0.00 0.00 34 1004.4
20260504021005 65 180 1.0 2.0 0.00 0.00 0.00 34 1004.4
20260504020503 65 180 0.0 2.0 0.00 0.00 0.00 31 1004.4
20260504020003 66 180 0.0 0.0 0.00 0.00 0.00 30 1004.4
20260504015601 66 180 0.0 0.0 0.00 0.00 0.00 29 1004.4
20260504015100 67 180 0.0 2.0 0.00 0.00 0.00 30 1004.5
20260504014600 67 180 0.0 2.0 0.00 0.00 0.00 28 1004.4
20260504014058 68 180 0.0 2.0 0.00 0.00 0.00 27 1004.5
20260504013557 68 180 0.0 2.0 0.00 0.00 0.00 28 1004.5
20260504012600 69 180 0.0 1.0 0.00 0.00 0.00 25 1004.4
20260504012059 69 180 0.0 0.0 0.00 0.00 0.00 26 1004.5
20260504011556 69 180 0.0 0.0 0.00 0.00 0.00 28 1004.5
20260504011056 70 180 0.0 2.0 0.00 0.00 0.00 26 1004.5
20260504010556 70 180 0.0 3.0 0.00 0.00 0.00 24 1004.4
20260504010056 71 180 0.0 3.0 0.00 0.00 0.00 26 1004.4
20260504005555 71 180 2.0 3.0 0.00 0.00 0.00 23 1004.4
20260504005055 71 180 1.0 3.0 0.00 0.00 0.00 25 1004.4
20260504004608 71 190 0.0 1.0 0.00 0.00 0.00 24 1004.5
20260504004055 72 190 0.0 1.0 0.00 0.00 0.00 24 1004.6
20260504003554 72 190 0.0 0.0 0.00 0.00 0.00 24 1004.5
20260504002553 72 190 0.0 1.0 0.00 0.00 0.00 23 1004.5
20260504002054 72 190 0.0 2.0 0.00 0.00 0.00 23 1004.5
20260504001557 72 190 0.0 4.0 0.00 0.00 0.00 24 1004.6
20260504001055 72 190 1.0 4.0 0.00 0.00 0.00 21 1004.6
20260504000553 72 235 1.0 3.0 0.00 0.00 0.00 22 1004.7
20260504000054 72 236 1.0 4.0 0.00 0.00 0.00 21 1004.7
20260503235552 73 236 1.0 7.0 0.00 0.00 0.00 20 1004.7
20260503235055 73 274 4.0 10.0 0.00 0.00 0.00 18 1004.6
20260503234552 73 265 5.0 13.0 0.00 0.00 0.00 17 1004.7
20260503234053 73 301 4.0 17.0 0.00 0.00 0.00 19 1004.7
20260503233552 73 268 7.0 20.0 0.00 0.00 0.00 18 1004.8
20260503232554 73 288 9.0 16.0 0.00 0.00 0.00 17 1004.8
20260503232051 73 281 10.0 16.0 0.00 0.00 0.00 17 1004.6
20260503231555 74 304 9.0 17.0 0.00 0.00 0.00 17 1004.5
20260503231052 74 315 11.0 17.0 0.00 0.00 0.00 17 1004.5
20260503230550 74 277 4.0 15.0 0.00 0.00 0.00 19 1004.6
20260503230052 74 306 7.0 15.0 0.00 0.00 0.00 18 1004.5
20260503225549 74 294 6.0 15.0 0.00 0.00 0.00 18 1004.5
20260503225048 74 279 5.0 11.0 0.00 0.00 0.00 20 1004.5
20260503224548 74 254 3.0 9.0 0.00 0.00 0.00 19 1004.6
20260503224048 74 266 3.0 13.0 0.00 0.00 0.00 19 1004.5
20260503223548 74 312 5.0 13.0 0.00 0.00 0.00 18 1004.7
20260503223148 74 306 5.0 9.0 0.00 0.00 0.00 18 1004.6
20260503222545 74 296 4.0 8.0 0.00 0.00 0.00 19 1004.8
20260503222047 74 284 4.0 12.0 0.00 0.00 0.00 18 1004.8
20260503221551 74 275 7.0 12.0 0.00 0.00 0.00 18 1004.9
20260503221050 74 283 6.0 12.0 0.00 0.00 0.00 19 1004.9
20260503220544 74 360 4.0 12.0 0.00 0.00 0.00 18 1005.1
20260503220042 74 328 5.0 13.0 0.00 0.00 0.00 18 1005.3
20260503215541 74 290 6.0 14.0 0.00 0.00 0.00 18 1005.4
20260503215041 74 341 3.0 14.0 0.00 0.00 0.00 19 1005.5
20260503214541 74 297 4.0 10.0 0.00 0.00 0.00 18 1005.5
20260503214040 74 36 4.0 13.0 0.00 0.00 0.00 19 1005.7
20260503213539 74 347 4.0 15.0 0.00 0.00 0.00 19 1005.8
20260503212540 74 340 6.0 11.0 0.00 0.00 0.00 19 1006.0
20260503212039 74 350 3.0 9.0 0.00 0.00 0.00 19 1006.1
20260503211541 74 269 6.0 14.0 0.00 0.00 0.00 17 1006.2
20260503211042 74 328 3.0 14.0 0.00 0.00 0.00 17 1006.1
20260503210538 75 280 4.0 11.0 0.00 0.00 0.00 17 1006.2
20260503210037 75 262 4.0 11.0 0.00 0.00 0.00 17 1006.2
20260503205538 75 314 4.0 11.0 0.00 0.00 0.00 17 1006.3
20260503205036 75 294 3.0 12.0 0.00 0.00 0.00 18 1006.4
20260503204536 76 355 6.0 13.0 0.00 0.00 0.00 17 1006.5
20260503204034 75 78 5.0 9.0 0.00 0.00 0.00 17 1006.5
20260503203536 74 82 6.0 9.0 0.00 0.00 0.00 16 1006.6
20260503202533 75 107 6.0 9.0 0.00 0.00 0.00 17 1006.9